This is the latest recevied weather packets stored in our database for station/object KI4FRU. If no packets are shown the sender has not sent any weather packets the latest 10 day(s).
| Time | Temp. | Humidity | Pressure | Rain* | Wind** | Luminosity | Snow |
|---|---|---|---|---|---|---|---|
| 1777678640 | 17.22° C | 72% | 1050.1 hPa | 0 mm | - | 14 W/m² | - |
| 1777678338 | 17.22° C | 71% | 1050.1 hPa | 0 mm | - | 19 W/m² | - |
| 1777678033 | 17.78° C | 70% | 1050.1 hPa | 0 mm | - | 19 W/m² | - |
| 1777677731 | 17.78° C | 69% | 1049.9 hPa | 0 mm | - | 15 W/m² | - |
| 1777677428 | 17.78° C | 68% | 1050 hPa | 0 mm | - | 22 W/m² | - |
| 1777677126 | 18.33° C | 70% | 1050.1 hPa | 0 mm | - | 24 W/m² | - |
| 1777676824 | 18.33° C | 68% | 1050.6 hPa | 0 mm | - | 27 W/m² | - |
| 1777676523 | 18.33° C | 69% | 1050.4 hPa | 0 mm | - | 31 W/m² | - |
| 1777676220 | 18.33° C | 67% | 1050.7 hPa | 0 mm | - | 26 W/m² | - |
| 1777675916 | 18.89° C | 67% | 1050.6 hPa | 0 mm | - | 33 W/m² | - |
| 1777675613 | 18.89° C | 65% | 1050.6 hPa | 0 mm | - | 53 W/m² | - |
| 1777675310 | 19.44° C | 64% | 1050.4 hPa | 0 mm | - | 25 W/m² | - |
| 1777675007 | 19.44° C | 64% | 1050.6 hPa | 0 mm | - | 50 W/m² | - |
| 1777674703 | 19.44° C | 64% | 1050.6 hPa | 0 mm | - | 50 W/m² | - |
| 1777674400 | 20° C | 64% | 1050.6 hPa | 0 mm | - | 58 W/m² | - |
| 1777674097 | 20° C | 64% | 1050.4 hPa | 0 mm | - | 58 W/m² | - |
| 1777673793 | 20.56° C | 62% | 1050.2 hPa | 0 mm | - | 72 W/m² | - |
| 1777673491 | 20.56° C | 65% | 1050.2 hPa | 0 mm | - | 105 W/m² | - |
| 1777673188 | 20.56° C | 62% | 1050.2 hPa | 0 mm | - | 98 W/m² | - |
| 1777672885 | 21.67° C | 60% | 1050.4 hPa | 0 mm | - | 46 W/m² | - |
| 1777672582 | 21.67° C | 61% | 1050.6 hPa | 0 mm | - | 201 W/m² | - |
| 1777672277 | 21.67° C | 60% | 1050.4 hPa | 0 mm | - | 148 W/m² | - |
| 1777671972 | 21.67° C | 61% | 1050.6 hPa | 0 mm | - | 115 W/m² | - |
| 1777671668 | 20.56° C | 62% | 1050.8 hPa | 0 mm | - | 211 W/m² | - |
| 1777671365 | 20.56° C | 61% | 1050.7 hPa | 0 mm | - | 84 W/m² | - |
* Rain latest hour (hover to see other rain measurements)
** Current wind speed in m/s (hover to see current wind gust speed)